Wind_Speed
7 7 8 7 6 6 5 4 3 3 3 2 2 1 0 0 2 3 3 4 5 7 7 8 8 8 9 6 3 3 7 7 7 8 7 6 7 7 9 8 5 5 4 3 3 5 5 6 5 3 6 5 3 2 2 2 2 3 5 6 6 7 5 4 4 4 6 7 5 4 2 6 4 3 1 1 5 5 3 5 4 3 3 8 9 8 9 12
7 7 7 7 6 6 5 4 3 3 2 2 1 1 1 2 2 3 4 4 6 7 7 8 8 8 8 5 2 4 7 5 6 11 8 7 9 8 9 7 4 5 3 2 4 5 5 5 4 4 6 4 3 2 2 3 3 5 5 5 7 7 4 6 6 6 6 7 6 3 2 4 4 3 0 3 3 5 4 4 5 3 5 9 9 8 9 10
7 7 7 6 6 5 5 4 3 2 3 3 3 3 3 3 4 4 5 6 7 7 7 8 8 8 7 5 1 4 5 7 2 8 6 9 9 8 8 6 5 5 3 4 5 5 6 4 3 5 6 4 3 3 3 3 4 5 5 6 5 4 5 4 5 5 5 6 8 3 1 2 2 3 1 4 6 3 2 6 3 6 3 7 9 8 9 10
6 6 6 6 6 6 5 4 4 4 4 4 4 5 5 5 5 6 6 7 7 8 8 8 9 9 8 5 1 3 5 7 1 5 5 9 10 8 7 6 6 5 3 4 6 5 5 4 5 6 5 5 3 3 5 4 3 3 4 8 4 4 5 3 4 4 4 3 6 4 1 2 1 2 2 5 7 1 8 12 9 11 11 5 7 7 8 8
5 5 6 6 6 6 5 6 5 5 5 5 5 6 6 6 7 7 7 7 7 8 7 7 9 9 8 5 1 2 5 4 2 4 7 11 11 10 7 7 7 6 4 5 6 5 6 6 6 5 5 5 4 4 6 5 2 3 6 10 6 4 6 3 5 4 3 2 4 4 2 2 2 2 4 7 7 6 9 12 11 9 10 8 4 5 6 6
5 5 6 6 6 6 7 7 7 6 6 6 6 6 7 7 7 7 7 7 7 7 7 6 8 8 7 5 2 3 4 1 3 5 10 11 12 10 7 7 8 5 4 6 7 6 7 7 6 6 5 5 5 5 4 5 4 5 7 7 3 3 4 2 4 3 1 3 3 2 3 3 2 2 9 12 11 9 10 10 10 8 7 7 5 6 6 7
4 5 6 6 7 7 8 8 8 7 7 7 6 6 7 7 7 7 7 7 7 7 6 6 7 7 6 3 2 4 2 4 5 9 12 12 12 10 7 7 8 6 5 8 7 6 6 7 7 5 5 5 6 5 3 4 6 7 7 4 1 1 3 2 3 1 1 3 2 3 3 2 2 3 8 13 13 12 11 10 10 10 10 10 10 10 10 11
5 6 6 7 7 8 8 8 8 8 7 8 7 8 8 8 7 7 7 7 6 6 5 5 6 7 6 2 4 4 4 6 7 13 14 12 12 8 7 7 8 7 6 8 6 6 5 6 6 3 6 4 3 3 2 3 8 9 7 4 1 1 1 1 2 1 0 2 1 1 3 3 5 5 10 15 14 12 11 11 11 12 14 15 14 13 13 14
6 7 7 8 8 9 9 9 8 8 8 8 9 10 10 9 9 8 7 6 6 5 4 5 5 6 5 4 6 2 4 4 9 16 16 14 12 7 6 7 8 7 6 5 5 7 4 4 3 2 5 3 2 2 3 5 5 5 5 3 2 3 1 1 1 1 0 1 1 2 1 7 5 4 11 16 14 11 11 12 13 14 16 16 15 15 15 15
7 7 8 8 8 9 9 9 9 10 10 11 11 12 12 11 10 9 7 6 5 4 3 4 5 5 5 5 6 1 4 4 8 15 15 15 12 6 5 7 9 8 6 5 5 6 5 4 3 2 4 3 3 2 3 4 1 0 4 4 6 4 1 1 1 1 1 1 0 2 4 8 5 4 7 13 13 11 12 14 15 16 18 17 16 16 18 19
7 7 8 8 8 8 8 9 10 11 12 12 11 11 10 10 10 9 7 6 4 2 2 3 3 3 4 4 2 2 5 5 9 14 14 15 13 6 5 9 11 7 6 6 3 5 7 6 4 2 2 1 2 3 3 2 1 1 4 6 7 4 2 1 1 1 1 3 1 1 8 10 10 9 9 12 10 10 13 15 16 17 17 17 18 17 19 22
7 8 8 8 8 8 8 10 12 14 13 10 9 9 7 5 5 5 5 4 3 2 1 2 2 0 2 7 7 4 5 7 11 14 14 15 14 7 6 9 9 5 5 6 3 5 6 5 4 4 2 2 2 2 2 1 2 3 3 6 6 7 5 3 3 2 1 3 2 3 7 9 12 12 12 11 8 10 14 14 16 16 15 16 17 16 18 22
8 9 9 10 10 9 8 10 14 16 13 10 10 9 8 6 3 1 2 2 2 1 0 1 2 1 3 5 5 3 5 8 13 15 16 17 12 6 5 9 7 3 4 5 4 5 4 4 5 4 3 4 3 1 1 2 3 4 4 5 6 6 4 5 3 2 2 3 2 3 1 7 12 13 14 10 7 11 14 14 14 14 14 14 15 15 16 22
9 10 11 12 12 11 9 10 14 16 13 10 10 10 9 8 6 4 2 3 2 1 1 1 2 1 1 4 3 5 8 8 12 15 18 21 12 3 4 7 6 3 2 3 3 3 2 3 4 1 2 3 2 0 3 5 4 3 3 3 3 4 2 7 5 3 3 3 1 4 2 5 11 15 14 10 9 13 14 14 14 13 13 13 14 15 15 20
11 12 12 13 13 13 11 10 13 16 13 10 10 11 10 8 6 5 4 4 2 1 2 3 1 2 2 5 2 6 11 8 12 17 17 21 13 3 5 5 3 2 2 2 2 2 2 3 4 2 1 0 2 3 5 5 4 3 2 2 2 2 3 7 8 9 6 3 1 4 2 6 11 14 12 10 11 14 14 14 14 14 14 13 13 14 14 18
11 12 12 13 14 14 12 10 11 15 12 8 10 12 11 9 8 8 8 7 5 5 4 3 2 5 2 4 0 5 10 9 13 16 14 17 11 5 8 5 1 1 1 2 2 1 1 3 2 2 2 2 3 4 5 5 4 2 2 4 3 3 3 3 7 8 8 5 2 2 3 5 9 12 12 11 11 13 14 14 14 14 14 14 12 12 13 14
10 11 12 13 13 13 12 10 10 13 11 6 10 16 18 14 11 10 11 11 11 11 8 5 3 2 4 4 2 6 10 9 12 15 14 14 10 6 8 4 1 0 2 3 2 2 2 2 1 1 2 1 5 5 5 5 1 1 3 5 4 3 5 2 4 7 9 6 3 8 9 7 8 10 12 12 12 13 13 13 14 13 13 13 12 12 13 13
10 11 12 13 13 13 12 10 9 11 10 3 7 11 18 20 18 15 10 5 3 4 7 8 5 2 4 6 6 9 12 9 10 14 16 15 9 6 6 3 1 2 3 3 3 3 2 1 2 1 2 6 8 6 4 5 4 5 6 5 5 4 4 3 4 7 9 4 4 10 11 9 10 10 11 11 11 13 13 13 13 13 13 13 12 12 13 14
11 12 12 13 13 14 12 10 8 10 10 1 5 3 5 10 15 18 18 11 3 2 3 7 6 0 3 8 11 13 10 7 8 14 19 16 9 5 4 2 2 2 2 2 1 3 2 1 1 3 6 6 7 7 5 5 5 7 6 5 6 5 3 5 5 4 6 4 4 9 9 10 10 10 10 10 11 12 12 12 11 11 12 12 12 11 12 13
11 12 12 13 13 14 12 9 7 9 9 3 4 3 2 3 3 8 14 13 8 7 6 5 6 4 4 6 12 15 8 4 6 18 24 20 10 6 3 2 5 2 2 2 3 3 2 4 6 5 6 7 8 7 6 5 5 6 5 5 5 3 4 5 4 3 3 4 5 12 11 11 10 10 10 9 10 12 11 12 11 11 11 11 11 12 12 12
11 12 12 13 13 13 10 7 7 7 8 3 3 3 1 1 1 3 4 7 7 5 7 6 4 5 4 4 11 15 6 2 6 18 26 21 9 4 3 4 2 1 5 2 1 1 2 6 7 6 6 6 6 5 5 5 4 4 3 4 3 3 6 4 3 3 2 4 5 13 12 11 10 9 9 9 10 11 11 11 11 11 11 10 11 12 11 10
11 12 12 12 11 12 9 6 7 6 6 5 3 2 3 2 2 5 3 6 6 2 4 4 3 6 3 1 9 12 5 5 8 17 27 23 9 4 6 6 4 5 5 1 2 2 6 8 7 7 6 5 5 5 6 5 4 3 3 4 4 5 7 1 6 3 3 4 4 12 11 9 10 10 10 10 10 9 9 10 10 10 10 9 10 10 9 9
11 11 11 11 11 11 8 5 7 6 8 8 5 4 4 2 3 4 1 4 6 2 3 5 7 11 7 4 11 13 6 10 10 14 24 20 9 5 7 7 7 7 9 8 5 4 5 6 8 7 6 6 4 9 10 5 2 4 6 5 5 7 7 2 2 3 5 3 2 9 10 7 8 10 10 10 9 9 9 9 10 9 9 9 8 8 8 9
10 10 11 11 11 11 6 3 7 7 10 10 8 5 4 3 3 2 1 2 4 3 3 3 5 10 9 4 10 10 7 10 10 13 18 16 8 5 4 5 5 7 8 10 12 10 7 6 8 7 5 5 5 10 13 7 1 6 8 7 6 7 9 6 7 9 3 2 1 3 6 6 6 7 8 8 8 9 8 9 9 9 9 9 8 9 8 8
10 10 11 11 11 11 4 2 6 6 7 6 6 4 3 3 2 1 1 2 3 3 2 1 1 7 8 5 9 6 1 7 9 11 13 13 9 5 2 2 3 6 5 6 11 10 9 6 7 7 5 7 7 8 11 9 4 3 6 7 8 8 10 10 10 10 3 4 2 3 2 2 6 6 7 6 6 7 7 7 8 7 7 7 6 7 7 7
11 11 12 11 11 10 2 2 5 4 3 3 3 1 2 1 2 1 2 3 3 4 3 3 3 8 9 9 12 3 2 4 6 10 13 11 6 3 2 2 2 6 4 4 6 4 8 10 8 8 8 9 8 8 11 10 6 3 6 7 7 8 9 10 9 7 3 3 2 3 5 1 5 6 6 6 6 7 6 6 6 5 5 5 5 5 5 5
11 11 12 12 11 9 1 1 4 2 1 1 2 0 2 1 2 1 3 3 3 3 5 7 5 8 9 11 13 2 1 6 4 11 16 12 6 3 2 6 4 5 2 1 3 3 7 11 11 11 9 8 8 7 10 10 5 5 8 7 7 8 8 8 7 5 2 2 2 4 8 4 1 5 6 7 7 6 5 4 4 4 4 4 4 4 5 5
10 12 13 12 11 8 3 1 3 2 1 0 1 0 3 3 3 1 3 1 3 2 3 5 3 6 7 8 13 8 2 8 5 10 15 11 8 2 5 9 6 10 7 1 3 4 5 9 11 12 9 7 6 5 8 9 5 6 9 8 6 7 7 6 6 4 3 2 2 7 10 6 1 6 6 6 4 5 5 4 4 4 4 3 3 3 3 4
11 13 14 11 9 7 4 2 2 1 0 1 1 2 4 3 2 3 3 1 3 2 0 4 3 6 9 5 10 10 6 7 5 8 11 9 10 5 5 6 5 12 14 8 7 4 4 6 6 9 8 7 6 5 5 7 6 8 12 8 4 5 5 5 4 3 3 3 1 8 10 7 2 5 4 3 1 2 4 4 4 4 3 2 1 2 3 3
11 15 15 11 8 7 3 3 4 1 0 0 2 3 3 2 2 3 0 2 3 2 1 4 3 6 10 6 7 10 9 8 6 7 7 8 11 8 4 1 3 6 9 11 9 5 4 2 2 6 6 6 7 6 5 5 8 11 12 8 6 5 4 5 3 3 4 1 4 8 11 8 2 3 3 2 2 1 2 4 5 5 4 2 1 1 3 3
12 17 16 14 11 8 2 1 3 0 1 3 5 3 2 2 1 1 2 1 2 4 2 3 5 5 8 7 7 9 7 7 8 8 8 7 10 12 6 2 4 0 5 7 6 5 4 2 1 3 5 8 7 6 5 7 8 9 8 7 3 3 2 3 2 3 5 4 4 8 12 9 5 2 4 3 2 0 2 4 6 6 5 3 1 1 3 4
13 18 18 18 16 11 5 1 1 0 3 5 6 1 3 1 3 3 3 1 2 4 3 2 5 7 6 4 6 8 5 5 8 7 7 7 7 10 10 7 7 2 2 4 2 6 5 6 4 1 5 13 10 5 1 3 7 11 8 8 7 3 4 4 4 5 5 4 4 8 10 6 2 3 3 3 3 1 2 4 6 6 5 4 3 2 2 3
12 19 19 20 20 15 8 3 1 2 6 7 4 2 2 1 5 2 3 4 2 3 2 2 5 7 6 3 5 7 3 4 8 7 5 7 7 8 10 12 12 6 3 6 2 1 2 5 8 4 4 11 12 8 5 4 8 10 8 8 6 5 5 5 5 5 5 5 6 8 6 2 1 3 4 3 3 3 3 4 5 6 5 4 3 3 3 4
8 18 21 23 24 19 10 5 1 5 7 5 3 1 3 5 4 1 2 4 3 2 3 2 5 5 2 4 4 5 2 4 7 8 6 6 6 7 8 12 15 10 5 4 3 4 1 3 8 8 4 8 10 7 4 5 5 6 6 6 4 4 4 5 6 6 6 8 8 5 1 2 3 3 6 4 4 3 4 5 5 5 5 3 2 3 4 5
3 15 22 24 26 21 12 6 2 7 6 2 1 4 5 5 2 0 2 3 2 4 4 2 5 4 2 4 2 3 2 2 4 6 8 8 7 7 7 9 14 11 5 3 3 3 2 4 4 5 4 7 10 7 5 6 4 3 5 4 4 4 3 4 6 6 6 8 6 2 1 2 2 4 6 5 5 4 4 5 6 6 5 4 4 4 5 6
1 10 19 23 25 21 13 7 3 6 3 2 4 7 4 3 2 3 3 3 3 5 7 3 3 5 3 2 3 6 3 1 3 2 4 7 8 9 8 5 9 11 6 4 3 2 1 3 3 2 3 6 7 7 9 8 4 3 4 5 4 4 4 4 6 6 6 7 4 3 3 1 2 3 5 5 5 5 6 6 7 7 5 5 5 5 6 6
3 4 12 22 27 20 11 8 5 4 2 2 7 6 3 2 3 3 3 4 3 3 6 3 2 4 4 3 4 8 7 3 4 4 2 3 4 8 9 5 7 9 6 3 2 2 3 0 3 1 1 3 0 2 7 10 7 4 3 6 5 4 3 3 5 5 6 7 5 6 8 5 4 1 4 7 6 6 7 8 8 7 6 6 6 6 7 7
3 1 6 20 25 17 9 7 4 2 1 7 9 5 2 2 2 3 4 5 3 3 4 4 3 2 4 4 3 7 9 5 5 4 3 2 3 6 8 4 6 9 7 5 2 2 3 1 3 1 0 3 3 3 3 7 7 4 2 4 4 2 2 4 4 4 6 6 6 8 8 7 5 1 4 4 3 4 6 6 8 9 7 6 6 8 8 8
2 3 3 18 20 13 11 7 3 2 5 8 6 4 3 3 3 3 3 3 3 3 3 4 3 2 4 5 3 4 6 6 6 4 3 3 3 5 7 4 5 8 8 6 4 3 3 2 1 2 2 2 2 1 2 3 5 4 1 3 3 2 3 4 3 3 5 6 7 8 8 5 2 3 3 1 2 3 4 5 7 8 7 7 7 8 9 9
2 2 4 18 16 8 13 11 5 6 7 6 4 3 2 2 3 2 1 2 2 2 3 3 3 3 3 3 2 3 4 5 6 4 4 5 2 4 7 5 6 9 8 5 3 3 3 2 2 2 4 2 0 3 4 4 4 4 4 4 4 3 2 2 3 1 3 6 6 7 9 5 4 4 3 2 2 2 2 3 5 6 7 8 9 10 9 10
2 2 4 17 12 2 6 10 8 6 6 6 5 4 2 1 2 2 1 1 1 2 3 3 3 3 3 2 2 3 3 3 5 4 4 5 4 3 5 4 5 7 7 4 2 5 3 2 4 2 1 0 2 4 3 3 4 4 4 3 4 3 2 4 3 1 1 5 5 6 10 6 2 3 2 2 3 3 3 4 5 6 8 10 10 11 11 11
2 3 5 14 10 7 6 7 6 4 5 5 4 4 2 1 1 2 1 1 1 0 1 2 4 4 3 3 3 3 3 3 4 4 3 5 6 4 3 3 4 5 4 2 1 3 3 3 4 3 1 3 5 5 2 3 3 2 2 2 2 2 2 4 5 3 3 4 3 6 10 5 3 3 2 2 3 2 2 4 6 7 9 10 12 13 13 13
4 4 7 13 7 3 6 8 4 5 6 2 1 3 2 1 2 1 1 1 1 0 1 1 2 2 3 3 3 2 3 3 3 3 3 4 4 4 3 5 5 4 3 1 1 1 1 2 4 3 1 3 5 5 3 1 1 2 1 3 2 2 2 2 5 5 5 6 5 6 9 5 2 2 1 1 1 2 2 5 7 9 10 11 13 14 13 14
3 3 6 14 9 1 2 6 5 5 5 3 4 4 1 3 4 2 3 4 2 1 2 3 2 2 3 2 2 2 3 2 3 3 2 2 3 2 1 5 6 4 3 3 2 3 1 2 4 4 2 0 2 2 3 4 3 3 1 1 1 1 1 2 3 3 4 6 4 6 9 5 2 4 2 2 2 5 6 8 9 10 11 12 12 13 13 14
2 3 4 14 17 9 4 3 4 6 6 5 6 4 1 3 3 3 3 4 3 3 2 2 1 2 2 1 0 3 3 2 1 2 2 3 2 1 1 4 5 5 4 3 3 4 3 2 3 4 5 5 4 4 2 2 3 3 1 2 3 3 3 2 3 4 5 3 2 6 10 9 4 4 5 6 8 9 11 12 12 12 12 13 13 13 13 14
1 4 2 6 11 9 4 3 4 6 5 4 4 3 2 3 2 0 1 2 2 2 3 2 1 2 1 1 1 3 4 4 3 2 1 2 2 1 1 3 4 4 3 1 3 3 2 1 2 3 5 6 7 7 4 3 6 7 4 3 4 4 5 3 4 5 4 5 6 9 11 14 14 11 13 16 15 13 13 15 15 13 13 14 14 14 14 14
1 3 2 1 3 5 5 4 4 3 2 1 2 2 3 3 3 2 0 1 1 1 1 2 1 1 2 2 0 2 3 3 4 3 1 1 0 1 0 2 3 3 1 1 1 2 3 2 2 3 6 9 10 11 9 5 7 10 9 7 6 5 7 6 8 8 5 6 9 9 10 14 16 15 18 19 15 12 14 15 15 15 15 15 15 16 16 15
2 2 1 2 1 2 4 4 3 4 4 2 1 1 2 3 3 1 1 1 1 1 1 1 3 4 4 2 2 1 2 2 3 2 1 1 1 2 3 3 1 3 3 1 3 2 3 2 2 1 7 11 12 12 10 8 9 10 10 11 11 9 9 10 12 12 7 7 11 14 15 17 17 17 18 16 12 13 15 16 16 16 17 17 17 18 17 16
2 4 1 2 1 3 3 2 2 4 5 3 2 2 2 3 3 2 1 1 1 1 3 1 2 3 2 3 3 1 2 1 1 2 2 1 1 2 2 3 1 1 2 2 3 1 2 1 2 0 8 12 10 7 6 7 9 10 12 13 12 12 13 13 14 13 12 14 16 18 21 20 16 15 12 9 11 14 15 16 17 18 18 18 18 18 17 15
1 3 2 2 4 4 2 1 1 2 4 2 1 2 2 1 2 2 1 2 1 2 3 2 2 1 1 3 3 0 0 2 1 1 3 3 2 2 1 0 0 1 2 2 2 1 1 1 2 0 6 8 4 2 4 7 10 13 15 14 11 11 12 13 14 12 13 16 17 18 20 17 12 12 11 10 12 14 16 18 19 18 18 18 19 18 16 15
5 4 3 4 5 2 1 0 1 1 3 2 2 2 1 1 2 2 2 3 3 3 4 3 1 1 1 2 3 2 2 2 2 2 2 2 0 0 0 2 1 1 1 2 1 2 2 1 1 1 6 5 1 1 7 10 12 14 15 13 11 11 11 10 11 10 11 13 15 16 15 11 9 13 15 14 14 16 18 20 18 17 17 18 19 17 15 13
6 3 1 3 4 1 1 1 0 1 3 3 2 1 0 2 2 1 1 2 1 3 3 3 2 2 2 2 2 3 3 2 1 3 2 1 2 2 1 2 2 1 1 1 0 1 1 3 2 1 5 4 1 4 10 11 9 7 6 7 10 12 11 11 11 12 12 11 11 12 11 10 13 16 16 16 17 18 18 17 16 16 18 18 17 15 13 13
Wind_Direction
33 37 42 45 42 40 39 47 57 53 54 63 80 112 105 306 323 333 344 345 346 348 349 349 345 346 348 352 12 96 115 113 94 76 65 33 351 348 349 342 340 345 344 315 293 270 242 226 222 223 239 216 214 228 163 216 231 230 238 244 253 256 271 329 315 339 340 330 26 74 34 325 326 99 132 213 223 220 207 208 183 148 106 83 93 110 122 134
32 38 44 45 42 40 41 45 48 35 24 18 9 336 305 292 304 314 324 330 336 345 345 345 341 344 351 354 5 132 139 149 100 72 48 5 349 346 347 346 340 338 344 311 290 269 256 241 215 229 240 213 180 177 181 189 202 233 243 247 253 267 314 13 346 345 344 325 342 16 39 323 327 29 103 276 250 198 243 225 186 211 159 125 104 116 135 143
31 37 40 40 38 34 35 31 11 354 341 332 322 309 302 297 302 305 313 321 325 334 340 342 341 343 349 350 321 159 176 219 156 65 25 349 348 341 343 348 340 330 323 303 300 281 277 274 228 236 237 226 197 182 207 176 192 234 243 255 263 305 323 8 0 346 4 334 314 328 51 289 326 14 236 296 300 221 26 31 47 345 16 134 121 118 141 151
29 34 35 32 30 26 22 11 354 337 326 319 306 301 300 294 298 303 308 314 318 326 334 338 339 341 347 349 258 190 215 228 185 54 358 342 343 339 341 343 336 320 301 292 287 270 262 247 225 234 240 236 200 201 224 176 187 227 222 256 286 357 317 12 47 10 13 336 311 316 294 274 83 28 299 315 309 335 34 20 11 359 9 65 113 123 140 150
23 24 24 22 19 16 10 1 350 335 327 320 311 306 301 295 297 300 303 309 313 319 325 334 337 339 345 341 281 205 228 229 79 26 339 339 341 338 334 340 336 317 305 277 266 257 235 222 218 222 234 237 203 212 223 177 195 252 234 255 288 322 298 28 64 35 11 306 292 286 296 353 68 65 16 11 4 19 10 356 352 354 2 12 64 117 130 133
13 10 7 6 4 3 359 351 346 339 329 321 312 307 302 298 298 296 301 307 310 317 319 326 334 336 341 337 295 219 229 255 42 349 338 337 337 338 328 334 332 320 310 270 253 244 232 219 216 219 230 239 221 219 209 164 189 253 246 249 279 298 287 10 60 61 3 290 290 317 5 0 306 74 56 40 30 14 5 1 358 3 7 11 62 94 106 105
6 1 357 356 356 353 349 344 342 338 332 326 315 307 302 297 297 296 298 301 306 316 320 323 332 338 340 342 259 221 178 63 29 345 340 336 337 340 334 335 329 327 302 273 259 241 234 226 229 237 243 245 236 221 179 169 201 242 260 253 211 272 280 6 62 76 317 290 334 7 332 321 339 60 60 41 29 15 14 23 23 33 43 53 69 75 80 82
358 359 357 353 351 344 343 343 341 338 332 325 315 311 306 300 298 294 294 295 300 309 319 324 332 338 336 314 242 206 88 46 5 351 347 342 340 339 348 352 334 325 297 287 290 272 258 244 247 253 249 251 245 218 164 216 216 224 258 267 203 230 255 67 87 152 263 271 341 312 272 47 50 68 60 37 23 19 27 36 44 53 58 61 65 69 74 74
1 2 356 350 346 343 345 345 343 339 331 319 311 308 302 300 297 293 294 285 290 305 319 327 337 342 332 289 255 214 71 9 346 355 355 350 343 337 358 1 339 322 294 301 306 290 281 253 264 278 277 291 260 231 177 239 230 212 266 298 259 264 111 55 313 173 191 252 164 250 148 75 65 99 63 35 20 24 41 50 54 60 61 61 63 64 68 69
5 357 351 349 346 349 351 350 350 341 330 320 311 304 295 292 287 286 290 281 284 300 316 334 350 348 320 280 262 244 47 343 339 350 352 355 348 336 337 343 343 326 297 305 306 301 308 305 316 317 301 285 230 227 181 235 303 179 285 295 273 282 49 295 321 99 189 111 151 273 88 76 56 73 45 22 17 31 52 57 58 62 62 60 61 59 59 60
2 357 355 355 356 0 2 1 358 347 339 332 323 316 304 289 279 276 277 275 276 281 330 350 16 4 338 348 343 49 26 336 337 346 349 356 353 339 301 324 339 325 304 309 321 335 325 328 328 287 302 268 201 194 189 241 330 293 291 288 258 213 134 223 111 62 200 120 54 101 96 73 49 47 21 7 15 42 59 60 61 62 63 61 60 59 55 55
8 10 8 7 9 7 8 7 1 357 355 356 358 355 346 324 291 270 264 259 248 230 336 353 60 331 336 46 50 37 16 353 358 358 353 353 348 334 304 326 340 327 316 311 329 359 335 334 300 276 332 324 269 203 188 201 260 261 263 283 267 198 161 82 81 66 88 101 91 146 113 70 49 38 15 7 22 58 65 63 63 63 63 63 61 61 57 56
19 19 18 18 17 10 6 4 1 4 9 17 22 23 30 32 25 320 254 221 189 167 306 352 76 260 286 60 62 22 18 15 14 4 355 356 344 329 340 348 353 349 335 330 354 2 334 332 304 300 348 302 300 49 235 211 236 260 237 268 292 236 178 82 72 108 96 86 127 228 167 68 49 32 16 13 42 68 69 64 65 66 65 65 63 64 61 58
22 21 21 20 18 14 8 5 4 6 14 28 33 38 42 39 49 64 95 149 157 176 303 52 120 236 347 85 95 24 22 25 18 1 355 360 352 337 11 1 4 18 11 6 8 11 358 323 291 262 52 323 335 110 238 215 214 252 232 223 272 272 126 91 47 37 75 90 177 279 304 76 46 28 20 25 59 71 72 69 68 70 69 68 67 66 65 62
21 20 19 18 17 16 12 9 7 7 17 36 43 44 40 38 50 65 93 108 118 108 60 87 134 254 111 102 118 18 21 22 8 355 351 357 355 347 355 350 8 34 61 54 63 76 39 299 269 235 101 24 229 243 262 237 213 242 272 251 239 319 78 93 53 32 36 46 248 295 334 93 52 29 25 38 64 73 74 72 69 70 70 70 70 68 68 65
19 18 16 15 13 13 11 8 7 8 17 46 56 50 44 44 57 73 90 93 88 87 72 75 320 301 56 78 9 17 19 7 354 351 351 354 353 339 335 322 300 36 122 111 118 138 277 275 295 308 254 217 255 286 293 265 211 183 291 320 334 341 336 58 70 44 22 2 320 359 42 83 54 34 36 47 62 73 75 74 70 69 70 70 71 71 69 67
17 16 13 12 10 9 8 5 8 8 14 63 78 62 58 59 72 87 95 93 84 81 71 42 341 317 75 57 346 356 355 343 344 353 354 351 351 341 334 317 255 14 151 167 201 229 248 243 190 236 244 3 353 323 297 294 291 44 349 330 334 344 321 335 88 38 12 351 20 74 79 72 57 47 47 51 61 73 76 74 74 74 74 74 73 72 70 66
14 12 9 9 7 6 5 5 8 6 7 84 118 76 66 65 70 72 66 68 71 85 71 31 7 136 78 33 359 343 338 329 334 351 357 354 355 345 338 344 291 224 201 196 210 252 261 226 229 252 24 25 14 356 335 352 345 330 337 329 325 335 323 356 62 18 4 359 61 84 91 79 65 59 58 57 63 73 76 75 77 78 77 78 76 74 72 69
7 5 4 4 4 3 3 4 6 4 1 34 170 146 85 76 72 60 41 31 16 61 72 9 358 110 28 14 354 336 326 311 332 357 1 357 351 322 305 298 244 225 247 234 83 3 325 329 325 19 24 9 8 7 352 352 334 314 315 308 314 317 333 35 58 30 4 359 79 87 86 79 67 61 62 63 69 74 78 80 79 80 79 79 79 77 75 72
360 359 359 359 0 358 358 2 8 7 358 341 194 216 199 163 107 61 38 41 53 59 70 24 15 52 30 5 350 344 326 273 355 7 2 353 330 292 293 251 226 209 14 345 39 15 323 57 52 22 11 355 352 352 333 328 319 307 298 289 301 317 350 25 64 101 14 348 88 94 84 79 68 62 65 66 77 78 77 80 80 82 83 82 83 82 80 77
354 353 354 356 355 351 352 3 14 15 8 15 191 232 291 266 126 108 64 64 63 47 67 48 26 60 38 347 351 349 329 222 15 9 3 353 324 266 339 339 253 40 35 19 82 82 41 57 46 6 356 337 328 326 313 307 294 287 294 303 323 12 349 357 111 129 2 343 103 105 89 80 72 66 67 63 69 71 73 81 83 87 88 87 87 84 84 83
350 351 353 352 347 346 350 6 20 30 40 62 108 74 57 24 89 132 148 92 78 23 66 52 37 56 46 0 356 337 324 9 9 10 2 354 2 29 347 0 50 38 29 53 197 123 69 49 20 358 343 303 306 334 311 279 275 316 354 337 348 6 340 344 145 166 338 344 132 116 93 84 83 74 68 64 64 63 66 74 77 85 91 92 90 88 90 86
351 352 350 347 345 347 349 11 20 34 58 70 77 71 97 99 113 146 218 101 93 33 44 39 35 32 24 45 358 340 22 26 359 5 358 352 13 17 345 15 55 49 40 46 54 65 61 30 1 340 310 298 347 13 350 299 225 41 26 357 344 355 339 319 169 295 341 359 149 117 104 104 99 87 75 71 76 77 74 75 76 77 83 89 89 88 87 79
354 351 351 348 348 346 341 20 21 37 64 73 79 89 126 120 120 161 289 116 96 67 70 48 39 29 20 24 347 342 58 45 8 3 357 357 357 325 347 14 30 62 57 52 68 73 58 21 340 314 304 338 17 24 9 343 28 77 48 8 335 337 329 310 308 310 325 107 177 142 127 126 111 96 88 82 84 87 85 87 88 85 87 92 89 81 74 68
353 351 356 355 351 349 341 63 24 42 71 69 76 95 122 105 126 160 298 174 78 56 111 121 55 28 11 345 350 340 61 49 27 4 355 2 348 314 33 358 358 50 51 54 76 75 49 21 331 328 2 23 25 29 16 346 323 82 54 8 330 320 315 306 312 307 277 134 160 263 271 114 107 94 94 97 87 86 89 92 94 96 99 96 89 82 72 66
352 356 2 3 360 357 345 136 24 40 86 60 55 118 136 94 158 87 296 211 72 17 357 9 349 11 6 345 352 329 217 33 26 10 7 7 350 264 5 13 56 44 36 64 82 80 28 16 357 2 17 24 30 33 14 349 323 0 16 355 325 313 306 303 312 306 305 70 72 324 335 357 118 97 99 109 98 96 94 96 102 102 102 98 87 81 68 61
0 4 5 6 8 7 0 128 17 15 108 60 13 103 144 136 145 104 276 222 78 0 344 2 342 4 8 349 353 9 180 338 332 16 13 1 343 246 7 35 59 39 29 193 80 63 13 15 15 12 15 25 30 24 4 345 329 352 354 340 321 310 303 304 302 289 333 62 142 29 359 317 140 95 111 120 110 112 110 106 119 119 117 110 89 73 59 48
11 8 5 4 7 18 48 80 25 30 58 289 318 65 158 159 143 193 268 221 37 342 334 4 355 5 354 348 16 56 40 330 330 8 0 359 359 312 61 47 37 35 30 215 108 72 19 27 20 5 15 30 24 11 347 334 335 346 335 327 319 306 293 291 289 289 330 260 191 34 7 325 34 109 147 157 126 126 137 140 149 147 141 124 92 67 50 34
19 11 8 4 4 17 46 81 62 96 79 262 202 123 149 150 178 246 254 134 19 349 352 358 7 353 336 347 38 48 35 9 17 352 349 21 29 28 66 36 30 47 43 59 95 106 62 45 10 3 19 13 354 337 323 330 334 321 312 300 267 276 270 264 286 310 300 266 7 26 9 342 28 118 163 188 120 106 147 160 171 170 161 145 102 31 7 355
22 17 13 11 16 12 16 69 55 97 120 179 152 131 152 180 232 233 309 48 0 11 26 358 359 327 338 16 47 29 31 33 11 345 2 34 31 39 82 308 347 68 74 75 85 112 130 154 331 18 15 336 320 300 280 284 295 296 298 290 236 224 233 234 264 314 292 312 49 20 1 338 314 108 80 42 40 23 191 183 181 179 176 169 140 355 333 321
26 20 17 19 28 20 11 69 28 21 138 138 144 127 173 206 279 233 65 64 325 0 4 1 7 343 356 29 33 11 28 36 5 2 20 27 24 29 42 0 340 71 128 92 94 115 109 128 89 32 355 338 315 280 239 245 298 318 322 334 310 217 228 258 299 349 328 358 38 9 353 324 287 96 80 74 73 336 217 192 189 186 181 180 183 325 315 307
32 21 20 23 29 31 37 59 342 179 147 142 143 168 232 171 39 33 33 325 275 2 19 356 355 352 345 9 26 8 5 22 13 12 14 16 33 35 39 32 353 312 104 37 108 138 90 65 64 81 9 3 349 334 268 246 352 6 4 5 6 7 8 341 347 357 335 341 359 353 345 315 295 83 100 113 112 147 176 180 189 189 187 195 214 255 304 311
34 22 22 22 26 31 36 47 37 155 144 142 158 244 250 84 57 50 351 347 0 6 346 281 316 325 320 331 15 2 337 22 14 9 11 18 43 51 50 35 8 348 353 358 2 171 127 78 43 25 23 11 11 21 17 352 9 16 10 9 17 16 359 340 341 340 321 317 325 336 336 285 133 112 143 142 134 160 171 179 188 192 201 215 233 261 301 313
33 22 21 21 22 23 26 39 86 154 144 160 226 250 64 63 70 134 342 3 30 345 309 308 299 296 12 53 19 353 4 66 26 18 29 31 38 36 30 24 14 1 328 338 7 349 331 83 22 13 8 9 26 39 351 313 338 18 11 359 30 34 352 331 333 326 316 314 310 309 285 294 326 125 144 145 147 163 183 190 192 202 214 231 254 282 309 308
33 20 21 20 17 15 19 35 125 153 149 214 279 62 64 71 74 32 14 358 349 331 317 318 299 290 95 91 57 19 18 62 41 38 45 43 45 29 9 7 9 2 338 340 4 359 68 95 37 31 42 27 36 39 352 316 310 18 8 355 35 21 323 299 302 293 289 300 302 267 217 349 27 128 139 147 166 183 203 205 210 223 229 245 260 278 307 307
161 20 22 19 11 10 16 31 110 151 183 265 74 63 52 72 31 3 17 335 313 323 309 292 324 346 37 67 45 34 15 7 2 11 68 65 57 33 15 12 7 2 1 2 7 358 49 105 115 114 81 56 41 27 25 13 335 329 1 6 4 324 296 295 299 288 277 286 306 313 297 0 124 156 157 167 189 209 222 222 227 236 242 261 274 279 298 306
154 29 24 14 8 7 11 33 78 163 229 35 77 71 50 71 19 2 7 333 311 301 304 320 29 357 3 23 32 7 341 335 349 343 53 74 50 18 8 22 14 8 9 352 30 51 342 97 130 174 100 100 64 347 55 49 7 340 16 359 322 271 255 287 305 315 303 295 305 312 307 293 276 259 158 183 216 239 242 238 235 238 245 265 282 283 293 303
176 177 32 10 4 3 9 33 37 252 138 66 80 90 62 62 27 9 0 330 294 275 319 24 40 352 359 5 24 357 339 343 353 357 36 37 42 18 2 11 12 9 7 329 322 43 322 271 125 87 97 142 198 247 84 72 51 48 34 333 323 284 284 310 315 317 311 303 300 308 312 298 283 309 133 180 239 270 273 264 246 240 244 264 288 292 296 302
224 212 39 2 358 15 32 31 342 334 79 75 79 95 65 66 65 28 1 328 288 293 1 41 17 24 33 359 357 6 357 6 1 358 26 10 38 40 16 3 343 352 356 335 336 356 307 294 110 131 136 173 210 272 355 44 60 57 0 346 4 332 311 329 324 299 301 303 304 309 310 314 358 81 93 36 350 315 303 291 257 242 244 265 290 295 297 301
305 206 39 355 348 27 42 40 38 41 64 67 66 80 67 87 89 61 7 333 312 339 22 33 0 12 36 10 10 16 6 20 17 19 35 15 30 70 39 12 331 336 334 318 348 359 303 296 344 124 141 186 257 51 17 4 17 6 0 14 1 329 292 286 273 260 304 299 303 308 301 316 50 80 75 21 359 316 292 281 255 243 251 269 288 294 293 298
306 156 20 353 353 43 33 42 47 41 67 73 72 81 58 77 86 80 114 288 319 29 17 20 27 15 7 8 31 15 359 28 33 31 45 30 23 56 50 13 329 328 320 298 355 6 336 306 314 301 189 292 84 80 38 19 24 10 3 2 349 348 332 299 298 95 291 284 289 295 292 303 55 88 57 348 300 280 273 269 258 254 265 273 283 289 290 297
12 91 348 352 28 66 47 60 46 24 77 74 59 78 50 16 64 60 120 213 274 54 39 32 33 22 16 10 12 11 2 22 32 28 53 53 30 27 37 1 315 306 312 317 35 6 336 302 296 288 343 46 97 111 83 42 45 56 51 24 342 322 320 310 317 335 304 279 270 272 277 287 92 100 40 332 280 259 254 269 270 268 276 281 286 292 295 301
43 79 356 352 10 20 44 80 69 39 77 92 67 78 34 20 67 75 80 30 313 274 64 57 28 16 29 9 343 2 11 14 30 38 74 84 56 45 17 342 324 300 305 337 44 350 307 309 303 272 163 117 131 144 160 187 254 229 143 45 5 326 358 328 308 320 305 279 278 275 272 273 117 125 316 331 263 252 256 275 282 283 287 290 294 298 301 304
61 90 19 12 17 284 52 82 99 84 90 125 108 89 61 41 45 38 39 31 14 337 26 64 54 19 29 2 345 16 10 8 51 53 57 69 68 83 331 335 342 347 359 13 0 339 341 352 325 302 298 194 175 194 212 215 244 272 289 53 79 106 30 303 280 280 269 265 271 277 280 285 146 165 196 173 217 253 267 281 291 296 296 296 299 301 303 306
93 87 32 23 35 56 72 63 105 117 117 121 102 84 104 86 43 6 22 35 25 349 7 69 51 0 30 312 41 62 26 350 36 74 70 72 91 127 332 340 341 1 29 13 323 311 316 338 340 327 328 333 326 324 322 275 281 298 273 175 169 170 190 248 277 267 268 278 258 258 275 289 282 254 287 305 295 284 287 298 305 303 300 299 301 303 306 307
88 66 55 24 36 51 65 36 65 111 123 119 99 60 45 91 109 228 347 40 53 7 20 60 293 275 9 311 188 94 55 36 59 103 104 74 103 100 15 337 345 15 39 342 299 295 284 302 5 337 297 296 308 309 321 324 295 295 288 232 207 177 176 227 266 264 292 321 285 262 272 289 295 303 311 314 313 306 302 307 309 305 303 304 304 307 309 307
49 62 28 50 61 64 72 48 33 74 101 67 83 61 37 74 122 166 227 53 64 339 14 66 36 339 12 356 236 108 88 78 76 83 83 332 309 104 286 286 348 10 321 266 323 305 268 258 46 348 274 269 285 289 293 294 276 282 290 280 262 212 179 198 235 255 303 314 277 277 291 292 294 304 311 313 316 313 308 309 308 307 307 307 305 307 308 306
42 101 325 321 42 64 67 48 27 60 64 38 84 82 42 71 84 65 66 124 147 219 246 103 68 45 30 351 301 166 151 142 95 97 161 252 231 203 205 210 339 345 296 312 38 2 285 291 69 0 277 280 281 276 274 271 268 275 281 280 277 249 213 212 233 249 267 263 264 286 298 292 293 304 311 315 315 310 309 309 308 308 308 307 306 307 307 307
62 108 59 330 40 69 61 16 349 70 66 52 85 78 32 68 75 52 32 222 172 56 343 355 62 43 30 352 320 223 173 199 114 159 198 168 204 243 226 193 177 357 330 355 43 39 273 304 76 319 288 290 285 271 259 258 267 276 275 275 275 255 233 231 243 250 255 258 265 283 291 289 293 302 308 312 309 307 309 309 308 307 307 307 308 307 306 307
118 121 113 96 91 78 56 306 278 96 80 39 71 73 14 33 83 102 54 345 9 42 357 0 57 24 0 351 335 60 110 324 354 159 191 179 197 240 235 305 140 71 33 23 23 357 314 9 75 326 289 290 277 235 243 252 270 283 285 282 270 250 239 241 248 252 256 262 269 281 287 286 287 298 306 309 308 308 308 309 309 307 306 306 306 305 305 306
87 97 133 119 94 42 338 120 276 93 81 42 54 97 207 38 71 112 93 21 8 21 6 0 64 194 241 328 333 52 45 336 354 64 158 170 26 321 126 11 338 289 12 45 3 327 335 339 125 252 300 299 152 215 280 280 281 280 280 276 252 232 234 240 243 246 250 263 276 282 282 281 295 311 314 310 306 307 307 308 308 305 303 303 304 303 304 304
97 83 70 98 93 24 319 106 264 59 67 36 42 82 83 69 81 193 150 94 55 33 10 341 302 243 238 322 356 40 33 2 48 55 71 112 52 53 57 50 52 344 348 97 261 343 0 314 308 324 306 303 26 319 305 299 293 276 265 264 244 229 235 244 248 252 249 256 273 275 273 288 307 313 309 303 305 310 309 308 308 304 302 301 301 302 304 302
Height
814 813 812 812 811 811 810 810 809 809 808 808 808 807 807 807 806 806 805 805 804 803 802 802 801 800 800 799 798 798 798 798 798 798 799 800 800 799 798 797 796 796 795 794 794 793 792 791 790 790 790 789 790 790 791 791 791 795 798 802 800 793 787 783 782 785 786 785 788 792 793 793 793 795 797 797 798 796 798 798 799 801 804 808 811 813 815 817
814 813 813 812 812 811 811 810 810 809 809 808 808 807 807 806 806 805 805 804 804 803 802 802 801 800 799 799 798 798 798 798 797 798 800 801 800 799 798 797 796 795 794 794 793 792 791 789 789 789 789 789 789 790 792 791 793 795 795 798 796 787 782 782 784 785 788 790 790 791 794 796 794 795 797 797 795 795 798 797 798 800 803 808 812 814 816 817
815 814 813 813 812 811 811 810 810 809 809 808 808 807 806 806 806 805 805 804 804 803 802 802 801 800 799 799 798 798 798 797 797 799 801 800 800 798 798 797 796 795 795 794 793 792 791 789 789 789 789 789 788 790 792 792 793 792 794 798 791 784 782 783 787 788 791 793 791 792 796 796 796 796 797 798 794 793 800 803 804 805 804 807 812 815 817 818
815 814 814 813 812 812 811 810 810 809 808 808 807 807 806 806 805 805 804 804 803 802 802 801 800 800 799 798 798 798 798 797 799 801 802 800 800 798 797 797 796 795 794 794 794 793 792 790 789 788 789 790 788 790 792 792 792 791 794 795 787 785 787 787 790 792 793 795 794 794 797 797 797 798 798 798 796 797 806 812 814 813 810 809 813 816 818 820
815 815 814 813 812 812 811 810 810 809 808 807 807 806 806 805 805 804 804 803 803 802 802 801 800 799 799 798 798 798 798 801 802 802 802 800 800 798 797 797 796 795 794 794 793 792 792 790 789 789 790 790 789 791 790 788 791 793 791 788 784 787 790 789 792 796 797 797 796 795 797 798 797 800 801 802 806 811 816 817 817 817 816 814 815 817 819 821
816 815 814 813 812 812 811 810 809 808 808 807 806 806 805 804 804 803 803 803 802 802 801 801 800 799 798 797 797 797 798 804 804 802 802 801 799 798 797 797 796 795 795 794 793 792 791 788 789 790 789 789 789 790 788 787 791 794 788 784 786 790 791 791 794 800 801 798 797 797 799 799 799 802 806 810 817 821 821 820 819 818 818 817 817 819 821 823
816 815 814 813 812 812 811 810 809 808 807 806 806 805 804 804 803 803 802 802 802 801 801 800 799 799 798 797 797 796 796 803 804 803 802 801 800 799 798 797 796 796 795 794 792 790 789 788 788 788 788 788 787 787 788 789 791 794 790 785 789 792 792 793 797 802 802 800 800 800 801 801 801 805 809 817 823 824 822 822 822 821 820 820 820 822 824 826
815 815 814 813 812 812 811 810 809 808 807 806 805 804 803 803 802 802 802 801 801 801 800 800 799 798 798 797 796 795 797 803 804 803 802 800 800 798 798 797 797 796 796 795 792 790 789 788 787 786 788 788 786 787 790 791 790 792 791 787 790 793 792 795 799 802 802 801 802 803 802 803 806 808 814 822 825 825 825 825 824 824 824 824 825 827 829 831
815 815 814 813 812 811 811 810 809 808 807 805 804 803 802 801 801 801 801 801 800 800 800 799 799 798 797 797 795 795 802 805 804 803 802 801 800 799 799 798 797 797 795 795 793 792 790 788 787 786 788 787 786 788 791 793 791 789 789 788 790 791 792 797 798 800 802 801 803 803 801 806 810 810 816 825 828 827 827 827 828 828 828 829 831 832 833 835
815 814 813 813 812 811 810 809 808 807 806 805 803 802 801 800 800 800 800 800 799 800 799 799 799 797 796 795 794 798 805 806 804 804 802 801 800 799 799 798 798 796 795 794 793 792 791 789 787 786 788 788 788 790 791 793 793 791 791 791 791 791 794 797 797 799 801 802 803 802 803 810 811 812 821 828 829 829 829 831 831 832 833 835 837 838 839 840
815 814 813 812 812 811 810 809 808 807 805 804 802 800 799 799 798 798 799 799 799 799 799 799 798 797 796 794 795 802 807 806 805 804 802 801 799 799 799 798 797 797 795 794 793 794 792 790 789 789 790 788 788 791 792 793 793 793 794 794 791 793 796 795 796 800 800 803 805 802 807 814 815 821 830 832 831 830 832 834 835 836 839 842 843 844 846 847
815 814 813 812 811 811 810 809 808 806 804 803 801 800 798 797 797 797 798 798 798 798 799 798 798 798 796 796 800 806 807 806 805 804 802 801 799 798 798 797 797 796 796 794 793 794 793 793 791 791 792 789 789 792 793 793 793 793 795 794 789 789 795 795 796 800 799 802 806 803 807 818 825 832 835 833 831 831 834 837 839 841 844 847 849 850 852 854
815 814 813 812 811 810 809 809 807 805 804 802 801 800 798 798 797 797 797 797 798 798 799 798 798 798 796 801 806 808 807 806 805 804 803 800 799 798 797 797 796 796 796 795 794 795 794 794 792 792 792 791 791 794 795 793 794 794 792 794 790 786 791 796 797 799 800 803 807 804 805 819 832 836 837 834 831 833 836 840 843 846 849 852 854 856 858 860
815 814 813 812 811 810 809 808 807 805 804 802 801 800 799 798 797 797 797 797 798 798 798 798 798 798 799 805 808 807 807 806 805 804 802 800 799 798 797 797 797 796 796 796 796 795 795 795 793 792 793 794 794 796 795 791 792 792 791 794 791 788 793 799 798 796 800 804 805 804 805 822 838 839 839 835 833 836 840 844 847 850 853 856 858 861 863 865
815 814 813 812 811 810 809 808 807 805 804 803 802 801 800 799 798 798 797 798 798 798 799 798 799 797 800 807 808 807 807 806 806 805 802 800 799 798 798 798 797 796 796 796 796 795 795 795 793 793 794 796 796 795 792 787 788 789 792 794 788 789 794 799 801 800 802 804 802 803 808 825 841 844 842 838 838 841 845 849 852 854 857 860 862 865 866 869
815 814 813 812 811 810 809 808 807 805 804 804 803 802 800 799 799 798 798 799 798 799 798 799 799 797 801 808 808 807 807 807 806 805 803 801 800 799 798 797 797 796 796 796 796 796 795 794 795 796 794 794 794 793 791 785 785 787 793 795 791 795 797 797 805 805 805 805 801 802 813 829 842 847 846 843 844 846 850 855 857 859 862 864 866 868 870 872
815 814 813 812 811 810 809 808 807 806 805 805 804 803 801 800 800 800 800 799 800 800 799 800 800 798 803 808 808 808 809 809 807 805 804 801 800 799 798 797 796 796 796 796 796 795 794 793 797 796 791 792 793 792 794 793 793 792 794 797 796 799 801 800 807 807 806 808 806 809 825 841 848 850 850 849 850 851 854 859 861 864 866 868 870 871 874 875
816 815 814 813 812 811 809 808 807 806 805 805 804 804 803 802 802 802 802 801 800 799 800 801 800 803 809 810 811 812 810 809 808 805 804 802 800 799 798 797 796 796 796 796 796 794 793 792 793 792 793 799 801 801 805 808 809 807 806 805 802 801 801 803 809 812 810 808 809 815 831 846 850 851 853 854 855 856 860 863 865 868 869 871 873 875 877 878
816 815 814 813 812 811 809 808 807 806 805 804 804 804 804 803 803 804 804 802 803 805 809 811 808 813 817 814 814 814 811 810 808 805 805 802 800 800 799 798 797 796 796 796 796 795 796 796 797 803 810 814 814 815 815 815 816 814 813 812 811 807 803 805 812 817 815 811 812 820 833 847 853 855 857 858 859 861 864 866 868 871 872 874 876 878 879 880
816 815 814 813 812 811 810 809 807 807 805 804 804 804 804 803 804 809 810 809 812 816 819 819 816 816 817 816 816 813 810 810 808 806 805 802 801 800 797 796 796 794 797 801 801 800 800 807 816 822 824 823 821 820 819 817 816 816 815 813 810 808 806 807 812 816 817 815 820 830 841 850 856 859 860 860 861 864 867 869 871 873 875 877 878 880 882 882
816 816 814 813 812 811 810 809 808 807 805 804 804 804 804 804 807 812 815 817 820 820 820 820 819 818 819 819 818 815 813 810 808 807 806 803 800 799 797 795 796 797 800 805 805 802 805 817 828 828 827 827 824 822 821 819 818 815 814 810 806 809 811 808 812 817 815 815 825 836 845 854 860 862 864 864 865 867 869 872 874 876 877 879 881 881 883 884
817 816 814 813 812 810 809 808 808 807 806 805 805 805 806 807 808 809 810 817 823 821 820 821 819 819 820 820 819 817 815 813 810 809 809 804 799 800 800 796 800 804 801 802 803 803 812 826 830 827 827 827 823 820 819 818 817 812 809 809 808 811 813 810 814 817 812 813 824 834 845 857 864 866 869 871 873 873 873 874 876 877 878 879 881 882 883 884
817 815 814 813 811 810 809 808 808 807 806 806 806 806 808 808 809 808 808 812 820 822 820 820 820 820 820 820 820 817 816 819 817 814 813 809 805 806 806 803 805 807 805 804 806 810 821 830 829 828 829 826 821 819 817 814 812 813 815 817 816 816 818 817 815 813 813 816 820 827 845 860 864 868 873 875 877 879 878 879 881 881 881 881 882 884 884 886
816 814 813 812 810 810 808 808 808 807 807 807 808 808 808 809 808 809 808 809 817 821 821 822 821 821 823 822 822 819 818 822 821 820 819 816 812 809 810 813 810 811 815 815 815 822 831 833 830 830 826 822 821 822 824 819 811 817 824 824 823 822 822 821 816 812 814 820 821 822 833 849 859 865 872 877 877 879 881 881 884 884 884 885 886 887 888 888
816 814 813 812 810 809 808 808 808 808 809 808 809 809 809 810 809 809 809 809 817 821 821 822 822 823 825 824 823 823 821 822 824 824 822 821 819 814 813 815 814 817 822 819 820 828 833 831 830 829 823 820 823 826 832 829 814 815 825 828 827 827 826 823 819 814 810 815 822 819 817 833 855 864 869 877 878 880 882 882 884 885 885 887 887 889 890 890
815 814 813 812 810 809 808 808 808 809 809 809 810 810 809 810 809 810 809 809 820 828 824 822 823 826 827 825 823 822 823 824 826 826 824 823 823 819 816 815 816 822 826 822 823 831 834 832 829 827 823 823 826 829 834 834 821 815 823 829 830 830 829 824 821 817 808 810 819 817 814 826 849 864 868 875 881 883 885 885 886 887 887 888 889 889 891 891
815 814 813 812 810 809 808 808 809 809 808 810 810 809 810 810 809 811 811 814 827 833 830 825 827 830 829 828 823 822 829 830 826 825 825 825 823 820 820 821 821 824 829 826 827 836 840 837 835 831 827 827 832 835 836 837 831 822 824 830 832 831 829 825 823 816 808 811 815 814 815 816 833 860 869 872 881 885 887 888 888 888 889 889 890 891 892 893
816 815 813 812 811 810 809 809 810 809 809 810 809 809 810 809 809 810 813 830 839 834 833 832 830 832 831 830 827 828 835 833 829 829 826 826 825 820 822 827 827 826 825 823 832 845 845 845 846 839 833 833 839 842 839 839 834 825 825 829 832 832 830 827 821 811 808 811 812 813 818 815 827 858 869 865 873 881 887 890 889 889 890 890 891 892 893 895
817 815 813 812 811 810 810 809 809 810 810 809 809 810 809 808 811 809 813 836 845 836 837 835 831 835 833 831 832 833 836 834 835 834 828 827 827 823 827 831 829 828 825 823 834 848 848 849 851 845 843 843 845 843 840 841 836 827 827 829 834 834 828 824 817 810 809 812 816 820 824 823 830 851 857 852 862 875 883 888 889 889 890 891 892 893 894 895
817 815 814 812 811 810 809 809 810 810 809 809 809 809 809 810 811 814 825 842 846 840 839 837 838 843 839 835 836 837 838 839 839 835 830 830 829 827 831 833 829 830 834 834 840 847 849 852 851 848 851 850 847 843 840 842 836 829 826 821 825 825 819 817 811 807 810 815 822 824 825 829 833 846 857 859 868 876 880 885 888 889 889 891 892 893 894 894
817 816 815 812 811 811 809 810 810 809 809 809 810 809 810 810 809 822 841 848 845 842 842 842 845 847 844 844 844 842 842 842 841 839 835 834 834 832 833 836 834 829 830 836 842 846 847 848 848 851 853 849 844 840 839 840 833 828 823 813 814 813 811 812 806 808 816 819 822 823 825 827 826 843 864 872 877 878 877 882 886 888 889 891 892 892 893 893
818 817 815 813 812 810 810 810 809 810 810 809 810 810 809 813 823 838 848 846 847 850 851 853 851 848 849 848 849 850 848 845 844 844 844 840 841 844 845 850 850 838 829 832 838 842 846 850 850 851 851 847 843 835 834 834 830 829 826 820 821 819 823 828 818 818 825 822 820 822 827 827 829 852 871 873 878 879 877 881 883 886 888 889 890 891 891 892
819 817 815 814 812 811 810 810 809 810 810 810 811 809 808 820 843 857 852 846 853 858 857 858 854 851 850 847 851 854 851 851 848 845 846 843 843 849 852 856 859 849 839 834 834 837 844 850 850 850 852 851 849 845 843 841 837 838 836 834 837 839 848 849 834 831 833 826 821 822 831 833 836 861 876 873 877 879 879 882 882 885 887 887 889 890 891 891
819 817 816 814 812 812 811 810 811 810 811 812 809 809 818 836 856 863 856 851 857 860 858 859 857 852 850 851 856 856 851 853 853 848 847 845 848 853 854 857 861 859 850 841 841 842 842 848 854 857 858 857 856 857 860 856 847 844 842 840 843 850 859 857 844 843 845 837 827 827 835 833 833 857 874 875 877 879 880 882 883 885 886 887 889 889 890 891
819 819 817 814 813 813 811 811 811 810 812 811 809 816 834 851 857 857 859 859 859 860 858 859 856 848 846 851 855 857 855 855 853 852 854 854 859 863 864 866 867 867 860 850 850 850 843 851 864 864 862 861 860 860 860 857 849 843 841 842 849 855 859 856 848 845 848 848 837 827 830 836 849 868 875 874 878 879 881 883 883 885 885 887 889 889 890 890
820 819 817 816 815 813 812 812 811 812 813 809 815 835 852 861 861 859 865 867 865 866 860 856 854 848 846 849 852 856 858 856 852 851 857 862 867 871 872 874 873 873 871 862 859 856 848 854 865 864 864 864 864 861 857 856 853 846 846 852 858 860 859 857 850 842 844 847 836 821 825 840 856 868 871 874 877 877 879 882 882 882 884 886 888 888 888 888
820 819 819 818 816 815 814 813 812 814 812 809 827 853 862 867 870 869 871 871 870 872 861 851 856 859 855 851 854 859 857 854 851 849 854 860 868 877 877 876 875 875 877 873 867 866 861 857 860 862 862 864 866 865 861 860 858 853 855 860 859 859 859 857 855 852 850 848 836 824 831 839 840 853 870 875 874 873 874 876 878 880 883 886 887 886 886 885
820 820 820 819 819 818 815 814 815 813 812 821 845 863 864 868 874 874 876 876 874 871 860 854 860 863 859 856 859 864 860 855 852 850 855 860 869 883 883 880 878 874 878 877 869 868 866 858 858 860 859 861 864 863 860 860 860 859 862 862 859 862 860 854 858 864 862 859 846 833 837 837 830 844 864 866 864 868 868 869 875 878 881 885 885 884 883 882
820 819 821 823 821 820 817 816 816 812 815 833 853 862 865 871 876 879 882 881 876 869 862 863 866 862 862 864 865 866 863 861 857 854 858 863 872 885 888 885 883 877 877 876 871 870 867 858 856 857 858 859 857 857 860 861 861 860 861 861 862 864 863 861 865 867 866 865 858 849 845 835 830 844 857 859 862 866 868 869 873 877 882 884 883 882 881 880
821 820 824 825 822 822 820 816 816 819 830 846 856 862 869 872 876 882 885 883 877 870 866 866 867 864 866 869 869 868 865 863 863 861 864 870 875 885 892 891 888 884 880 876 874 875 867 858 855 853 854 857 857 862 868 868 867 865 865 870 871 866 863 866 867 866 869 870 867 865 854 836 839 856 860 861 867 870 872 874 875 879 882 881 880 879 878 877
820 822 827 826 823 823 820 819 828 836 845 855 859 866 873 873 875 880 884 885 879 874 873 871 869 869 870 869 869 870 867 863 865 866 868 874 877 883 893 897 894 891 884 875 875 879 871 862 859 853 849 853 864 875 877 874 874 873 872 876 877 874 873 872 869 868 874 875 871 874 866 847 850 862 862 864 870 871 875 878 879 881 880 878 877 876 874 873
822 827 831 827 825 823 821 831 847 847 851 862 867 871 876 875 875 877 880 883 879 874 875 874 873 874 873 871 871 871 869 867 869 871 873 879 883 885 893 899 899 896 889 879 879 886 883 872 862 855 854 863 873 878 878 878 877 875 876 877 877 879 880 878 875 873 876 876 872 876 872 856 854 862 863 866 870 872 876 878 879 879 876 876 874 871 871 870
827 832 833 829 827 824 826 842 856 855 862 874 875 876 878 876 874 875 876 878 876 873 873 874 877 877 876 877 875 873 873 874 875 876 877 881 887 892 895 897 896 893 889 883 882 887 884 874 864 855 855 870 880 881 881 882 880 876 875 878 881 884 888 889 887 886 887 879 871 874 869 853 855 864 863 866 871 874 877 877 876 876 874 873 871 869 869 868
832 833 832 831 828 824 830 846 856 862 870 873 872 876 878 877 876 876 876 877 877 875 872 875 880 878 878 880 877 876 878 878 878 881 881 881 887 894 896 896 894 890 889 889 889 888 880 872 868 859 853 861 869 872 874 877 877 872 873 881 886 891 899 901 896 895 893 877 871 879 868 848 853 865 863 866 872 874 874 872 871 872 870 869 868 867 867 867
831 834 835 835 831 830 840 850 854 861 868 868 871 874 874 877 882 882 880 880 881 879 875 878 882 880 880 881 878 878 880 877 878 884 885 884 888 893 895 895 894 891 893 896 896 892 882 873 872 867 861 860 859 861 864 868 869 867 872 887 892 894 901 899 892 890 884 872 872 880 865 845 848 857 857 859 864 866 867 866 866 868 867 867 867 865 865 865
831 837 842 841 839 841 850 855 853 858 864 864 869 874 872 874 881 884 883 881 882 882 878 879 882 880 879 878 876 878 879 879 880 884 889 888 888 892 894 894 894 893 897 899 898 894 884 877 878 879 876 870 865 865 867 870 872 868 872 884 890 896 903 901 894 884 875 875 875 868 859 852 850 852 854 856 858 861 864 864 866 866 865 864 864 864 864 864
835 846 851 848 847 849 853 858 858 859 863 862 868 875 874 873 876 880 881 881 882 883 880 879 881 879 878 878 877 877 880 881 881 888 896 895 890 891 893 894 893 893 897 897 895 893 881 876 888 895 888 879 874 871 870 874 876 872 873 879 883 891 902 904 895 877 873 883 875 853 853 860 856 854 856 857 860 864 865 865 866 864 863 864 863 863 864 864
841 853 858 854 854 857 858 862 864 864 864 865 870 876 874 872 875 877 879 881 881 882 879 878 880 882 882 883 880 877 879 880 883 893 899 896 893 891 889 893 892 892 894 890 892 896 884 877 896 906 893 883 878 873 871 873 874 872 874 878 879 884 893 898 893 880 879 885 871 854 858 863 858 856 858 860 863 866 865 864 864 863 863 863 862 862 863 863
846 852 858 857 859 864 867 868 867 865 865 866 870 875 874 873 876 879 881 880 878 878 878 876 880 883 884 884 881 878 880 879 883 895 898 896 898 893 887 890 890 889 891 888 893 901 889 882 900 910 898 883 873 870 873 876 875 874 874 875 875 877 882 886 886 881 879 877 868 862 864 862 859 858 860 862 864 864 864 863 863 863 862 862 862 862 861 862
844 847 854 856 860 867 871 871 866 862 864 866 868 875 878 875 876 880 883 881 877 877 878 878 882 885 885 885 882 880 884 884 884 891 894 894 896 893 888 888 888 889 890 892 898 899 890 890 904 910 896 877 870 874 878 876 874 872 871 870 872 875 877 879 880 878 878 875 869 868 870 865 859 856 856 860 862 863 864 863 862 862 862 861 860 860 860 862
842 845 847 849 860 869 868 867 865 860 862 865 868 876 878 875 877 879 882 886 884 882 882 882 883 885 885 885 883 884 889 890 888 889 892 892 891 891 890 890 892 891 890 898 905 898 892 895 901 903 888 867 867 876 873 869 873 876 876 873 870 873 876 875 874 874 875 875 873 874 873 864 854 852 856 860 862 864 864 863 863 862 861 861 860 859 860 862
844 846 845 845 859 869 867 864 863 861 867 873 874 878 878 878 882 882 880 885 888 887 888 887 885 883 881 882 886 890 893 893 893 893 893 893 892 893 893 893 896 895 893 902 909 906 904 897 889 894 887 866 865 872 870 871 870 864 867 867 862 864 869 869 869 868 868 871 874 872 865 855 852 855 859 861 862 863 863 863 863 862 860 860 859 859 860 862